West Palm Beach, FL

3:35 AM EST on December 11, 2016 (GMT -0500)
Palm Beach International

Weather History for KPBI - March, 2015

Change the Weather History Date:

Monday, March 23, 2015

  Actual Average Record
Temperature  
Mean Temperature 77 °F 71 °F  
Max Temperature 87 °F 79 °F 91 °F (1911)
Min Temperature 67 °F 63 °F 42 °F (1960)
Degree Days  
Heating Degree Days 0 0  
Month to date heating degree days 0 22  
Since 1 July heating degree days 124 227  
Cooling Degree Days 12 7  
Month to date cooling degree days 297 137  
Year to date cooling degree days 575 372  
Growing Degree Days 26 (Base 50)    
Moisture  
Dew Point 65 °F    
Average Humidity 68    
Maximum Humidity 93    
Minimum Humidity 42    
Precipitation  
Precipitation 0.01 in 0.15 in 3.14 in (1984)
Month to date precipitation 0.15 3.40  
Year to date precipitation 3.25 9.35  
Snow  
Snow 0.00 in - - ()
Month to date snowfall 0.0  
Since 1 July snowfall 0.0  
Snow Depth 0.00 in    
Sea Level Pressure  
Sea Level Pressure 29.94 in    
Wind  
Wind Speed 8 mph (WSW)    
Max Wind Speed 21 mph    
Max Gust Speed 24 mph    
Visibility 10 miles    
Events Rain    
T = Trace of Precipitation, MM = Missing Value Source: NWS Daily Summary

Daily Weather History Graph

Daily Weather History Graph

Search for Another Location

Airport or City:

Trip Planner

Search our weather history database for the weather conditions in past years. The results will help you decide how hot, cold, wet, or windy it might be!

Date:

Astronomy

Mar. 23, 2015 Rise Set
Actual Time 7:21 AM EDT 7:33 PM EDT
Civil Twilight 6:58 AM EDT 7:56 PM EDT
Nautical Twilight 6:31 AM EDT 8:23 PM EDT
Astronomical Twilight 6:04 AM EDT 8:50 PM EDT
Moon 9:48 AM EDT (3/23) 11:16 PM EDT (3/23)
Length of Visible Light 12h 58m
Length of Day
12h 11m
Waxing Crescent, 15% of the Moon is Illuminated
Mar 23
Waxing Crescent
Mar 27
First Quarter
Apr 4
Full
Apr 11
Last Quarter
Apr 18
New

Hourly Weather History & Observations

Time (EDT) Temp. Heat Index Dew Point Humidity Pressure Visibility Wind Dir Wind Speed Gust Speed Precip Events Conditions
12:53 AM 73.0 °F - 63.0 °F 71% 29.97 in 10.0 mi WSW 6.9 mph - N/A   Partly Cloudy
1:53 AM 71.1 °F - 63.0 °F 75% 29.96 in 10.0 mi WSW 5.8 mph - N/A   Partly Cloudy
2:53 AM 69.1 °F - 64.0 °F 84% 29.94 in 10.0 mi WSW 4.6 mph - N/A   Partly Cloudy
3:53 AM 68.0 °F - 64.0 °F 87% 29.94 in 10.0 mi SW 5.8 mph - N/A   Partly Cloudy
4:53 AM 68.0 °F - 64.9 °F 90% 29.92 in 10.0 mi SSW 5.8 mph - N/A   Scattered Clouds
5:53 AM 68.0 °F - 64.9 °F 90% 29.93 in 10.0 mi WSW 6.9 mph - N/A   Scattered Clouds
6:44 AM 68.0 °F - 66.0 °F 93% 29.94 in 10.0 mi SW 6.9 mph - N/A   Scattered Clouds
6:53 AM 68.0 °F - 66.0 °F 93% 29.95 in 10.0 mi SW 6.9 mph - N/A   Scattered Clouds
7:53 AM 69.1 °F - 66.9 °F 93% 29.95 in 7.0 mi SW 9.2 mph - N/A   Mostly Cloudy
8:53 AM 71.1 °F - 69.1 °F 93% 29.97 in 8.0 mi WSW 6.9 mph - N/A   Mostly Cloudy
9:53 AM 75.9 °F - 68.0 °F 76% 29.97 in 10.0 mi SW 12.7 mph - N/A   Mostly Cloudy
10:53 AM 80.1 °F 81.9 °F 64.9 °F 60% 29.96 in 10.0 mi SW 11.5 mph - N/A   Mostly Cloudy
11:53 AM 82.9 °F 84.4 °F 64.0 °F 53% 29.95 in 10.0 mi SSW 11.5 mph - N/A   Mostly Cloudy
12:53 PM 86.0 °F 86.3 °F 62.1 °F 44% 29.94 in 10.0 mi SW 11.5 mph 20.7 mph N/A   Mostly Cloudy
1:53 PM 86.0 °F 85.7 °F 60.1 °F 41% 29.92 in 10.0 mi WSW 12.7 mph - N/A   Mostly Cloudy
2:53 PM 86.0 °F 85.7 °F 60.1 °F 41% 29.90 in 10.0 mi WSW 13.8 mph - N/A   Mostly Cloudy
3:47 PM 78.8 °F - 66.2 °F 65% 29.91 in 10.0 mi NW 16.1 mph - 0.00 in Rain Light Rain
3:53 PM 78.1 °F - 66.0 °F 66% 29.91 in 10.0 mi NW 13.8 mph - 0.00 in Rain Light Rain
4:53 PM 75.9 °F - 66.0 °F 71% 29.91 in 10.0 mi NW 17.3 mph - 0.01 in   Overcast
5:53 PM 75.9 °F - 66.9 °F 74% 29.91 in 10.0 mi WNW 9.2 mph - 0.00 in   Overcast
6:53 PM 75.9 °F - 66.9 °F 74% 29.92 in 10.0 mi WNW 10.4 mph - N/A   Overcast
7:53 PM 75.0 °F - 66.0 °F 73% 29.93 in 10.0 mi West 5.8 mph - 0.00 in   Mostly Cloudy
8:53 PM 75.0 °F - 66.0 °F 73% 29.94 in 10.0 mi WSW 4.6 mph - N/A   Mostly Cloudy
9:53 PM 73.0 °F - 66.0 °F 79% 29.96 in 10.0 mi Calm Calm - N/A   Mostly Cloudy
10:53 PM 73.0 °F - 66.0 °F 79% 29.97 in 10.0 mi SSW 3.5 mph - N/A   Scattered Clouds
11:53 PM 73.0 °F - 66.9 °F 81% 29.97 in 10.0 mi WSW 3.5 mph - N/A   Partly Cloudy